Location: Unspecified
(0.0000°N, 0.0000°E)
Time: 12:10:56
(UTC+00:00)

YUBILEINY - Pass Details

Date: 16 December 2017
Orbit: 1478 x 1508 km, 82.5° (Epoch: 25 June)

Event Time Altitude Azimuth Distance (km) Brightness Sun altitude
Rises 02:08:46 0° 174° (S) 4,618 ? -50.1°
Reaches altitude 10° 02:11:43 10° 170° (S) 3,640 ? -49.5°
Enters shadow 02:16:10 33° 156° (SSE) 2,305 ? -48.7°
